Weather History for Mount Pleasant, MI

Change the Weather History Date:

Wednesday, February 13, 2013

  Actual Average (KAMN) Record (KAMN)
Temperature  
Mean Temperature 28 °F -  
Max Temperature 34 °F 31 °F 52 °F (1984)
Min Temperature 21 °F 11 °F -11 °F (1958)
Degree Days  
Heating Degree Days 38    
Moisture  
Dew Point 24 °F    
Average Humidity 81    
Maximum Humidity 94    
Minimum Humidity 74    
Precipitation  
Precipitation 0.00 in - - ()
Sea Level Pressure  
Sea Level Pressure 29.76 in    
Wind  
Wind Speed 5 mph (SSW)    
Max Wind Speed 10 mph    
Max Gust Speed -    
Visibility 8 miles    
Events      
Averages and records for this station are not official NWS values.
T = Trace of Precipitation, MM = Missing Value Source: NWS Daily Summary

Daily Weather History Graph

Daily Weather History Graph

Search for Another Location

Airport:

Trip Planner

Search our weather history database for the weather conditions in past years. The results will help you decide how hot, cold, wet, or windy it might be!

Date:

Astronomy

Feb. 13, 2013 Rise Set
Actual Time 7:39 AM EST 6:06 PM EST
Civil Twilight 7:10 AM EST 6:36 PM EST
Nautical Twilight 6:36 AM EST 7:10 PM EST
Astronomical Twilight 6:03 AM EST 7:43 PM EST
Moon 9:00 AM EST (2/13) 10:18 PM EST (2/13)
Length of Visible Light 11h 26m
Length of Day
10h 26m
Waxing Crescent, 13% of the Moon is Illuminated
Feb 13
Waxing Crescent
Feb 17
First Quarter
Feb 25
Full
Mar 4
Last Quarter
Mar 11
New

Hourly Weather History & Observations

Time (EST) Temp. Windchill Dew Point Humidity Pressure Visibility Wind Dir Wind Speed Gust Speed Precip Events Conditions
12:14 AM 24.6 °F 20.3 °F 18.9 °F 79% 29.88 in 10.0 mi SSW 3.5 mph - N/A   Scattered Clouds
12:35 AM 24.8 °F 20.5 °F 19.4 °F 80% 29.88 in 10.0 mi SSW 3.5 mph - N/A   Overcast
12:55 AM 24.8 °F 20.5 °F 19.8 °F 81% 29.87 in 10.0 mi SSW 3.5 mph - N/A   Overcast
1:14 AM 25.2 °F 20.9 °F 19.9 °F 81% 29.87 in 10.0 mi SW 3.5 mph - N/A   Overcast
1:35 AM 25.7 °F 20.1 °F 20.3 °F 80% 29.87 in 10.0 mi SSW 4.6 mph - N/A   Overcast
1:55 AM 25.9 °F 19.2 °F 20.5 °F 80% 29.86 in 10.0 mi SSW 5.8 mph - N/A   Overcast
2:15 AM 26.2 °F 19.6 °F 21.0 °F 81% 29.86 in 10.0 mi SSW 5.8 mph - N/A   Overcast
2:35 AM 26.6 °F 21.2 °F 21.2 °F 80% 29.86 in 10.0 mi SW 4.6 mph - N/A   Overcast
2:55 AM 26.8 °F 22.8 °F 21.2 °F 79% 29.86 in 10.0 mi SSW 3.5 mph - N/A   Overcast
3:15 AM 26.6 °F 21.2 °F 21.2 °F 80% 29.86 in 10.0 mi SSW 4.6 mph - N/A   Mostly Cloudy
3:35 AM 26.6 °F 21.2 °F 21.6 °F 81% 29.85 in 10.0 mi SW 4.6 mph - N/A   Mostly Cloudy
3:55 AM 27.1 °F 18.9 °F 21.9 °F 81% 29.85 in 10.0 mi SW 8.1 mph - N/A   Overcast
4:15 AM 27.3 °F 22.0 °F 22.1 °F 81% 29.83 in 10.0 mi SW 4.6 mph - N/A   Overcast
4:35 AM 27.3 °F 20.9 °F 22.1 °F 81% 29.83 in 10.0 mi SSW 5.8 mph - N/A   Overcast
4:55 AM 26.6 °F - 21.9 °F 82% 29.82 in 10.0 mi Calm Calm - N/A   Overcast
5:15 AM 26.1 °F 20.5 °F 21.7 °F 84% 29.82 in 10.0 mi South 4.6 mph - N/A   Overcast
5:35 AM 25.7 °F - 21.7 °F 85% 29.81 in 10.0 mi Calm Calm - N/A   Overcast
5:55 AM 25.7 °F - 21.6 °F 84% 29.81 in 10.0 mi Calm Calm - N/A   Overcast
6:15 AM 25.0 °F - 21.0 °F 85% 29.81 in 10.0 mi Calm Calm - N/A   Mostly Cloudy
6:35 AM 23.0 °F 18.4 °F 20.1 °F 89% 29.79 in 10.0 mi SSE 3.5 mph - N/A   Clear
6:54 AM 21.7 °F - 19.4 °F 91% 29.79 in 7.0 mi Calm Calm - N/A   Scattered Clouds
7:15 AM 21.2 °F 16.4 °F 19.8 °F 94% 29.78 in 7.0 mi South 3.5 mph - N/A   Mostly Cloudy
7:35 AM 22.8 °F 18.2 °F 21.2 °F 93% 29.78 in 7.0 mi South 3.5 mph - N/A   Overcast
7:54 AM 23.9 °F 18.0 °F 21.7 °F 91% 29.78 in 7.0 mi South 4.6 mph - N/A   Overcast
8:15 AM 25.3 °F 16.7 °F 22.6 °F 89% 29.78 in 7.0 mi South 8.1 mph - N/A   Overcast
8:35 AM 26.1 °F 19.4 °F 23.0 °F 88% 29.77 in 7.0 mi South 5.8 mph - N/A   Overcast
8:54 AM 26.4 °F 19.8 °F 23.0 °F 87% 29.76 in 7.0 mi South 5.8 mph - N/A   Overcast
9:15 AM 27.0 °F 19.5 °F 23.4 °F 86% 29.76 in 7.0 mi South 6.9 mph - N/A   Overcast
9:35 AM 27.5 °F 21.1 °F 23.7 °F 86% 29.76 in 7.0 mi SSW 5.8 mph - N/A   Overcast
9:54 AM 27.9 °F 20.6 °F 23.9 °F 85% 29.76 in 7.0 mi South 6.9 mph - N/A   Overcast
10:15 AM 28.8 °F 20.9 °F 24.4 °F 84% 29.76 in 7.0 mi South 8.1 mph - N/A   Overcast
10:35 AM 29.3 °F 23.2 °F 24.6 °F 83% 29.76 in 7.0 mi SSW 5.8 mph - N/A   Overcast
10:54 AM 29.8 °F 23.0 °F 24.8 °F 81% 29.76 in 7.0 mi SSW 6.9 mph - N/A   Overcast
11:15 AM 30.2 °F 22.6 °F 25.0 °F 81% 29.75 in 7.0 mi SSW 8.1 mph - N/A   Overcast
11:34 AM 30.7 °F 23.3 °F 25.3 °F 80% 29.75 in 7.0 mi South 8.1 mph - N/A   Overcast
11:55 AM 31.3 °F 25.6 °F 25.5 °F 79% 29.75 in 7.0 mi South 5.8 mph - N/A   Overcast
12:15 PM 32.0 °F 24.2 °F 25.9 °F 78% 29.75 in 7.0 mi SSW 9.2 mph - N/A   Overcast
12:34 PM 32.0 °F 24.8 °F 26.2 °F 79% 29.74 in 7.0 mi SSW 8.1 mph - N/A   Overcast
12:55 PM 32.9 °F 25.3 °F 26.4 °F 77% 29.73 in 7.0 mi SSW 9.2 mph - N/A   Overcast
1:15 PM 33.1 °F 24.9 °F 26.2 °F 76% 29.73 in 7.0 mi SSW 10.4 mph - N/A   Overcast
1:34 PM 33.4 °F 25.4 °F 26.6 °F 76% 29.72 in 7.0 mi South 10.4 mph - N/A   Overcast
1:55 PM 33.8 °F 27.7 °F 27.0 °F 76% 29.72 in 7.0 mi SW 6.9 mph - N/A   Overcast
2:15 PM 33.8 °F 25.8 °F 27.0 °F 76% 29.71 in 7.0 mi SSW 10.4 mph - N/A   Overcast
2:34 PM 33.8 °F 26.4 °F 27.3 °F 77% 29.71 in 7.0 mi SSW 9.2 mph - N/A   Overcast
2:55 PM 33.8 °F 25.8 °F 27.3 °F 77% 29.71 in 7.0 mi SW 10.4 mph - N/A   Overcast
3:15 PM 33.8 °F 26.4 °F 27.1 °F 77% 29.70 in 7.0 mi SW 9.2 mph - N/A   Overcast
3:35 PM 33.8 °F 26.4 °F 27.1 °F 77% 29.71 in 10.0 mi SSW 9.2 mph - N/A   Overcast
3:55 PM 34.0 °F 26.6 °F 27.3 °F 77% 29.71 in 7.0 mi SW 9.2 mph - N/A   Overcast
4:15 PM 34.7 °F 26.9 °F 27.1 °F 74% 29.71 in 10.0 mi WSW 10.4 mph - N/A   Overcast
4:55 PM 34.3 °F 28.4 °F 27.3 °F 76% 29.71 in 7.0 mi WSW 6.9 mph - N/A   Overcast
5:15 PM 34.2 °F 27.5 °F 27.3 °F 76% 29.71 in 7.0 mi WSW 8.1 mph - N/A   Overcast
5:35 PM 34.0 °F 28.0 °F 27.0 °F 75% 29.71 in 7.0 mi WSW 6.9 mph - N/A   Overcast
5:55 PM 33.4 °F 27.3 °F 27.0 °F 77% 29.71 in 7.0 mi WSW 6.9 mph - N/A   Overcast
6:14 PM 33.3 °F 28.9 °F 27.0 °F 78% 29.71 in 10.0 mi WSW 4.6 mph - N/A   Overcast
6:35 PM 33.3 °F 28.9 °F 27.1 °F 78% 29.71 in 10.0 mi SW 4.6 mph - N/A   Overcast
6:55 PM 33.1 °F - 27.1 °F 79% 29.71 in 10.0 mi Calm Calm - N/A   Overcast
7:14 PM 33.1 °F 30.0 °F 26.6 °F 77% 29.72 in 7.0 mi SSW 3.5 mph - N/A   Overcast
7:35 PM 32.9 °F - 26.8 °F 78% 29.72 in 7.0 mi Calm Calm - N/A   Overcast
7:55 PM 32.4 °F - 26.6 °F 79% 29.73 in 7.0 mi Calm Calm - N/A   Overcast
8:14 PM 32.4 °F - 26.6 °F 79% 29.73 in 7.0 mi Calm Calm - N/A   Overcast
8:35 PM 32.5 °F - 26.6 °F 79% 29.72 in 7.0 mi Calm Calm - N/A   Overcast
8:55 PM 32.4 °F - 26.6 °F 79% 29.72 in 7.0 mi Calm Calm - N/A   Overcast
9:14 PM 32.2 °F - 26.6 °F 80% 29.72 in 7.0 mi Calm Calm - N/A   Overcast
9:35 PM 32.0 °F 28.7 °F 26.8 °F 81% 29.72 in 7.0 mi SSE 3.5 mph - N/A   Overcast
9:55 PM 32.0 °F - 26.6 °F 80% 29.71 in 7.0 mi Calm Calm - N/A   Overcast
10:14 PM 32.0 °F - 26.4 °F 80% 29.71 in 7.0 mi Calm Calm - N/A   Overcast
10:35 PM 32.0 °F - 26.4 °F 80% 29.71 in 7.0 mi Calm Calm - N/A   Overcast
10:55 PM 32.0 °F - 26.4 °F 80% 29.71 in 7.0 mi Calm Calm - N/A   Overcast
11:14 PM 32.4 °F 29.1 °F 26.6 °F 79% 29.71 in 7.0 mi South 3.5 mph - N/A   Overcast
11:35 PM 32.9 °F 29.8 °F 26.6 °F 78% 29.70 in 7.0 mi South 3.5 mph - N/A   Overcast
11:55 PM 32.9 °F 28.5 °F 27.1 °F 79% 29.71 in 7.0 mi South 4.6 mph - N/A   Overcast